EZY66 EGKK-EHAM

Flight info

Callsign EZY66
Flight time N/A
Altitude 29000
Route FRANE M604 GASBA M197 REDFA
Aircraft A20N/M-SDE2E3FGHIJ1RWXYZ/LB1

Departure

Time N/A
Airport London Gatwick Airport (EGKK)

Arrival

Time 2026-04-28 20:48
Airport Amsterdam Airport Schiphol (EHAM)
Time Latitude Longitude Altitude Speed Heading
2026-04-28 20:25 51.99471 1.70105 29158 ft 480 kts 75°
2026-04-28 20:25 52.01119 1.80600 29157 ft 480 kts 77°
2026-04-28 20:26 52.02720 1.91127 29158 ft 480 kts 76°
2026-04-28 20:26 52.04334 2.01661 29156 ft 480 kts 76°
2026-04-28 20:27 52.05945 2.12188 29157 ft 480 kts 76°
2026-04-28 20:27 52.07548 2.22724 29158 ft 480 kts 76°
2026-04-28 20:28 52.09142 2.33271 29156 ft 480 kts 77°
2026-04-28 20:28 52.10732 2.43825 29156 ft 480 kts 75°
2026-04-28 20:29 52.13274 2.53811 29034 ft 478 kts 59°
2026-04-28 20:29 52.14969 2.58460 28502 ft 478 kts 58°
2026-04-28 20:29 52.16667 2.63123 27691 ft 481 kts 59°
2026-04-28 20:29 52.18376 2.67833 26723 ft 485 kts 59°
2026-04-28 20:30 52.20087 2.72566 25987 ft 483 kts 59°
2026-04-28 20:30 52.21778 2.77257 25353 ft 477 kts 60°
2026-04-28 20:30 52.23447 2.81897 24723 ft 472 kts 60°
2026-04-28 20:30 52.25097 2.86496 24094 ft 467 kts 60°
2026-04-28 20:31 52.26726 2.91043 23459 ft 462 kts 60°
2026-04-28 20:31 52.28336 2.95545 22834 ft 457 kts 60°
2026-04-28 20:31 52.29930 3.00011 22203 ft 452 kts 61°
2026-04-28 20:31 52.31479 3.04358 21622 ft 447 kts 61°
2026-04-28 20:32 52.33032 3.08727 20995 ft 442 kts 61°
2026-04-28 20:32 52.34569 3.13054 20372 ft 437 kts 61°
2026-04-28 20:32 52.36084 3.17329 19777 ft 432 kts 62°
2026-04-28 20:32 52.37582 3.21565 19170 ft 428 kts 62°
2026-04-28 20:33 52.39064 3.25761 18569 ft 423 kts 62°
2026-04-28 20:33 52.40523 3.29900 17966 ft 418 kts 62°
2026-04-28 20:33 52.41967 3.34001 17368 ft 413 kts 62°
2026-04-28 20:33 52.43392 3.38059 16769 ft 409 kts 63°
2026-04-28 20:34 52.44621 3.42211 16161 ft 402 kts 71°
2026-04-28 20:34 52.45456 3.46534 15569 ft 394 kts 79°
2026-04-28 20:34 52.46064 3.50887 14979 ft 390 kts 80°
2026-04-28 20:34 52.46679 3.55187 14389 ft 385 kts 79°
2026-04-28 20:35 52.47292 3.59441 13803 ft 381 kts 79°
2026-04-28 20:35 52.47896 3.63645 13232 ft 377 kts 79°
2026-04-28 20:35 52.48491 3.67810 12659 ft 373 kts 79°
2026-04-28 20:35 52.49077 3.71936 12090 ft 369 kts 79°
2026-04-28 20:36 52.49653 3.76014 11525 ft 365 kts 80°
2026-04-28 20:36 52.50218 3.80010 11276 ft 352 kts 80°
2026-04-28 20:36 52.50759 3.83846 11132 ft 338 kts 80°
2026-04-28 20:36 52.51277 3.87527 10988 ft 324 kts 80°
2026-04-28 20:37 52.51771 3.91049 10868 ft 310 kts 80°
2026-04-28 20:37 52.52174 3.94447 10699 ft 296 kts 90°
2026-04-28 20:37 52.51875 3.97700 10299 ft 285 kts 115°
2026-04-28 20:37 52.50811 4.00376 9879 ft 279 kts 132°
2026-04-28 20:38 52.49555 4.02790 9487 ft 278 kts 133°
2026-04-28 20:38 52.48297 4.05188 9081 ft 276 kts 133°
2026-04-28 20:38 52.47057 4.07574 8689 ft 274 kts 132°
2026-04-28 20:38 52.45830 4.09958 8286 ft 273 kts 132°
2026-04-28 20:39 52.44616 4.12332 7884 ft 271 kts 131°
2026-04-28 20:39 52.43407 4.14703 7482 ft 270 kts 131°
2026-04-28 20:39 52.42207 4.17057 7085 ft 268 kts 131°
2026-04-28 20:39 52.41013 4.19395 6691 ft 267 kts 131°
2026-04-28 20:40 52.39826 4.21720 6301 ft 266 kts 131°
2026-04-28 20:40 52.38644 4.24031 5914 ft 264 kts 131°
2026-04-28 20:40 52.37466 4.26332 5531 ft 263 kts 131°
2026-04-28 20:40 52.36421 4.28373 5218 ft 260 kts 131°
2026-04-28 20:41 52.35265 4.30628 4867 ft 258 kts 131°
2026-04-28 20:41 52.34116 4.32868 4522 ft 255 kts 131°
2026-04-28 20:41 52.32994 4.35055 4346 ft 245 kts 131°
2026-04-28 20:41 52.31923 4.37142 4255 ft 234 kts 131°
2026-04-28 20:42 52.30901 4.39131 4172 ft 223 kts 131°
2026-04-28 20:42 52.29927 4.41024 4068 ft 214 kts 131°
2026-04-28 20:42 52.29298 4.42247 3915 ft 212 kts 131°
2026-04-28 20:42 52.28029 4.44707 3549 ft 211 kts 131°
2026-04-28 20:43 52.27088 4.46530 3361 ft 206 kts 131°
2026-04-28 20:43 52.26193 4.48264 3286 ft 193 kts 131°
2026-04-28 20:43 52.25377 4.49838 3274 ft 172 kts 131°
2026-04-28 20:43 52.24883 4.50796 3244 ft 161 kts 131°
2026-04-28 20:44 52.24195 4.52130 3195 ft 146 kts 131°
2026-04-28 20:44 52.23579 4.53325 3189 ft 135 kts 131°
2026-04-28 20:44 52.22934 4.54571 3189 ft 147 kts 131°
2026-04-28 20:44 52.22438 4.56004 3147 ft 149 kts 102°
2026-04-28 20:45 52.22660 4.57659 2992 ft 156 kts 63°
2026-04-28 20:45 52.23446 4.59634 2503 ft 158 kts 59°
2026-04-28 20:45 52.23853 4.60636 2271 ft 156 kts 59°
2026-04-28 20:45 52.24436 4.62102 1925 ft 151 kts 60°
2026-04-28 20:46 52.24982 4.63516 1595 ft 144 kts 60°
2026-04-28 20:46 52.25506 4.64877 1303 ft 137 kts 61°
2026-04-28 20:46 52.26021 4.66216 1100 ft 141 kts 60°
2026-04-28 20:46 52.26541 4.67564 904 ft 139 kts 60°
2026-04-28 20:47 52.27056 4.68902 714 ft 139 kts 61°
2026-04-28 20:47 52.27570 4.70239 527 ft 139 kts 60°
2026-04-28 20:47 52.28085 4.71570 343 ft 139 kts 60°
2026-04-28 20:47 52.28593 4.72907 144 ft 139 kts 59°
2026-04-28 20:48 52.29103 4.74215 3 ft 138 kts 59°
2026-04-28 20:48 52.29555 4.75398 -4 ft 85 kts 57°
2026-04-28 20:48 52.29745 4.75772 -3 ft 26 kts 26°
2026-04-28 20:48 52.29896 4.75899 -3 ft 14 kts 27°
2026-04-28 20:49 52.29952 4.75944 -3 ft 9 kts 31°
2026-04-28 20:49 52.30007 4.76027 -3 ft 12 kts 53°
2026-04-28 20:49 52.30059 4.76161 -3 ft 15 kts 58°
2026-04-28 20:49 52.30123 4.76319 -3 ft 18 kts 56°
2026-04-28 20:50 52.30192 4.76508 -3 ft 21 kts 57°
2026-04-28 20:50 52.30270 4.76708 -3 ft 17 kts 50°
2026-04-28 20:50 52.30353 4.76706 -3 ft 8 kts 304°
2026-04-28 20:50 52.30332 4.76609 -3 ft 11 kts 237°
2026-04-28 20:51 52.30358 4.76514 -3 ft 6 kts 314°
2026-04-28 20:51 52.30361 4.76475 -3 ft 5 kts 258°
2026-04-28 20:51 52.30348 4.76439 -3 ft 3 kts 237°
2026-04-28 20:51 52.30346 4.76435 -3 ft 0 kts 238°